This demonstration page uses our WeatherBlox Daily Observations layout. Learn more.

Left ArrowRight Arrow

Hourly Observations for November 2, 2019

Temp ( °F °C ) Dew Point ( °F °C ) Humidity (%) Winds ( mph kmh ) Pressure ( in mb ) Visibility ( mi km ) Precip ( " mm )
12:53 am 00:53 Clear 46 7.8 27 -2.8 47 47 Calm 30.15 1021 10 16 0.00 0.00
1:53 am 01:53 Clear 43 6.1 27 -2.8 53 53 Calm 30.15 1021 10 16 0.00 0.00
2:53 am 02:53 Clear 42 5.6 27 -2.8 55 55 Calm 30.15 1021 10 16 0.00 0.00
3:53 am 03:53 Clear 40 4.4 27 -2.8 60 60 Calm 30.15 1021 10 16 0.00 0.00
4:53 am 04:53 Clear 39 3.9 25 -3.9 57 57 N 3 6 30.16 1021 10 16 0.00 0.00
5:53 am 05:53 Clear 38 3.3 27 -2.8 65 65 Calm 30.16 1022 10 16 0.00 0.00
6:53 am 06:53 Clear 36 2.2 25 -3.9 64 64 Calm 30.17 1022 10 16 0.00 0.00
7:53 am 07:53 Sunny 36 2.2 26 -3.3 67 67 Calm 30.17 1022 10 16 0.00 0.00
8:53 am 08:53 Sunny 43 6.1 28 -2.2 56 56 Calm 30.18 1022 10 16 0.00 0.00
9:53 am 09:53 Sunny 53 11.7 30 -1.1 41 41 Calm 30.17 1022 10 16 0.00 0.00
10:53 am 10:53 Sunny 59 15 31 -0.6 35 35 Calm 30.16 1021 10 16 0.00 0.00
11:53 am 11:53 Sunny 67 19.4 30 -1.1 25 25 Calm 30.13 1020 10 16 0.00 0.00
12:53 pm 12:53 Sunny 73 22.8 29 -1.7 19 19 S 3 6 30.09 1019 10 16 0.00 0.00
1:53 pm 13:53 Sunny 78 25.6 26 -3.3 15 15 Calm 30.05 1018 10 16 0.00 0.00
2:53 pm 14:53 Sunny 80 26.7 24 -4.4 13 13 Calm 30.03 1017 10 16 0.00 0.00
3:53 pm 15:53 Sunny 80 26.7 23 -5 12 12 Calm 30.02 1017 10 16 0.00 0.00
4:53 pm 16:53 Sunny 79 26.1 24 -4.4 13 13 S 6 9 30.01 1016 10 16 0.00 0.00
5:53 pm 17:53 Sunny 74 23.3 24 -4.4 15 15 S 5 7 30.01 1016 10 16 0.00 0.00
6:53 pm 18:53 Clear 67 19.4 26 -3.3 21 21 SSW 3 6 30.02 1017 10 16 0.00 0.00
7:53 pm 19:53 Clear 60 15.6 27 -2.8 28 28 NNE 3 6 30.02 1017 10 16 0.00 0.00
8:53 pm 20:53 Clear 57 13.9 27 -2.8 32 32 NNE 5 7 30.04 1017 10 16 0.00 0.00
9:53 pm 21:53 Clear 51 10.6 26 -3.3 38 38 Calm 30.05 1018 10 16 0.00 0.00
10:53 pm 22:53 Clear 50 10 27 -2.8 41 41 Calm 30.05 1018 10 16 0.00 0.00
11:53 pm 23:53 Clear 48 8.9 28 -2.2 46 46 Calm 30.04 1017 10 16 0.00 0.00

Powered by AerisWeather